Location: Unspecified
(0.0000°N, 0.0000°E)
Time: 06:58:50
(UTC+00:00)

S-56A Canister/Altair - Pass Details

Date: 16 December 2018
Orbit: 633 x 2499 km, 38.9° (Epoch: 15 June)

Event Time Altitude Azimuth Distance (km) Brightness Sun altitude
Rises 00:28:39 0° 256° (WSW) 3,293 - -65.3°
Reaches altitude 10° 00:31:08 10° 269° (W) 2,536 - -65.1°
Maximum altitude 00:36:17 28° 327° (NNW) 1,907 - -64.7°
Drops below altitude 10° 00:43:21 10° 23° (NNE) 3,549 - -63.9°
Sets 00:47:35 0° 34° (NNE) 4,881 - -63.5°
